This is the latest recevied weather packets stored in our database for station/object DL5TW-13. If no packets are shown the sender has not sent any weather packets the latest 10 day(s).
| Time | Temp. | Humidity | Pressure | Rain* | Wind** | Luminosity | Snow |
|---|---|---|---|---|---|---|---|
| 1778053565 | 17.22° C | 68% | 1000 hPa | 0 mm | - | - | - |
| 1778053264 | 16.67° C | 68% | 999.9 hPa | 0 mm | - | - | - |
| 1778052964 | 16.67° C | 68% | 999.8 hPa | 0 mm | - | - | - |
| 1778052664 | 16.67° C | 68% | 999.8 hPa | 0 mm | - | - | - |
| 1778052364 | 17.22° C | 67% | 999.9 hPa | 0 mm | - | - | - |
| 1778052063 | 17.78° C | 67% | 999.8 hPa | 0 mm | - | - | - |
| 1778051763 | 18.33° C | 69% | 999.9 hPa | 0 mm | - | - | - |
| 1778051463 | 17.78° C | 69% | 1000 hPa | 0 mm | - | - | - |
| 1778051162 | 18.33° C | 69% | 1000 hPa | 0 mm | - | - | - |
| 1778050862 | 18.33° C | 72% | 1000.1 hPa | 0 mm | - | - | - |
| 1778050562 | 17.78° C | 71% | 1000 hPa | 0 mm | - | - | - |
| 1778050262 | 17.78° C | 75% | 1000 hPa | 0 mm | - | - | - |
| 1778049961 | 17.78° C | 76% | 999.9 hPa | 0 mm | - | - | - |
| 1778049661 | 17.22° C | 78% | 1000 hPa | 0 mm | - | - | - |
| 1778049361 | 16.67° C | 81% | 999.9 hPa | 0 mm | - | - | - |
| 1778049060 | 16.11° C | 83% | 1000 hPa | 0 mm | - | - | - |
| 1778048760 | 15° C | 87% | 999.9 hPa | 0 mm | - | - | - |
| 1778048460 | 13.89° C | 88% | 999.9 hPa | 0 mm | - | - | - |
| 1778048160 | 14.44° C | 88% | 1000.1 hPa | 0 mm | - | - | - |
| 1778047859 | 14.44° C | 89% | 1000.1 hPa | 0 mm | - | - | - |
| 1778047559 | 14.44° C | 90% | 1000 hPa | 0 mm | - | - | - |
| 1778047259 | 13.89° C | 91% | 1000 hPa | 0 mm | - | - | - |
| 1778046958 | 12.78° C | 93% | 999.8 hPa | 0 mm | - | - | - |
| 1778046658 | 12.22° C | 92% | 999.8 hPa | 0 mm | - | - | - |
| 1778046358 | 12.22° C | 92% | 1000 hPa | 0 mm | - | - | - |
* Rain latest hour (hover to see other rain measurements)
** Current wind speed in m/s (hover to see current wind gust speed)